Find Starlink 34868

NORAD ID: 65648 Int'l Des: 2025-210 Owner: SPXS Country: US Constellation: starlink operational
LEOCIRCULAR

Live-Position

3D-Globus wird geladen...

Über Starlink 34868

Beschreibung wird geladen...

Nächste Überflüge

Passes for default location (London). Set your location on the main map for personalized predictions.

Höhenverlauf

Loading altitude history...

Zweizeiliger Elementsatz

1 65648U 25210AC 26105.35511878 .00011596 00000-0 40296-3 0 9997
2 65648 53.1591 136.8392 0001349 87.4445 272.6710 15.30204443 33340
Epoch: 15. Apr. 2026 • Age: 16 hours

Aktueller Status

Höhe 480.5 km
Geschwindigkeit 7.63 km/s
Subsatellitenpunkt 52.12°N, 5.35°W
Startdatum 18. Sept. 2025
Alter 0.5 years
Typ internet

Technische Details

Klassifizierung Payload
Masse 575.00 kg
Trockenmasse 530.00 kg
Gesamtmasse 575.00 kg
Länge 0.30 m
Durchmesser 4.10 m
Spannweite 29.00 m
Form Box + pan
Hersteller SPXS
Bus-Typ Starlink V2MO
Phasenstatus In Orbit
Besitzer/Staat SPXS/US

Most Searched